Terug naar catalogus

OV1-10 R/B

ActiefPO
NORAD 2621·ROCKET BODY·🇺🇸 United States

Gelanceerd Dec 11, 1966 vanaf Vandenberg Space Force Base

Loading…

Volgende Passages (komende 24 uur)

TLE

VersSource: Space-Track

Epoch: Sep 14, 2026, 17:21 UTC

1 02621U 66111C   26257.72295128  .00000544  00000-0  61595-4 0  9997
2 02621  93.3945 243.4862 0058169 113.0651 247.6721 14.85694235187654

Volg OV1-10 R/B in realtime met AllMySat

Download on the App Store